SCP
-0 -0 -0 -0 -0 -0 -0 -0 -0 -0 -0 -0 -0 -0 -0 -0 -0 -0 -0 -0 -0 -0 0 0 0 0 0 -0 -0 -0 -0 0 0 0 -0 -0 -0 -0 -0 -0 0 0 -0
-0 -0 -0 -0 -0 -0 -0 -0 -0 -0 -0 -0 -0 -0 -0 -0 -0 -0 -0 -0 -0 0 0 0 0 0 0 0 0 0 0 0 0 0 0 -0 -0 -0 -0 -0 -0 0 -0
-0 -0 -0 -0 -0 -0 -0 -0 -0 -0 -0 -0 -0 -0 -0 -0 -0 -0 -0 -0 -0 -0 0 0 0 0 0 0 0 0 0 0 0 0 -0 -0 0 -0 -0 -0 -0 -0 0
-0 -0 -0 -0 -0 -0 -0 -0 -0 -0 -0 -0 -0 -0 -0 -0 -0 -0 -0 -0 -0 -0 -0 -0 0 0 0 0 0 0 0 0 0 0 0 0 0 -0 -0 -0 -0 -0 -0
-0 -0 -0 -0 -0 -0 -0 -0 0 0 -0 -0 -0 -0 -0 -0 -0 -0 -0 -0 -0 -0 -0 -0 -0 -0 -0 -0 -0 -0 0 0 0 0 0 0 0 0 -0 -0 0 0 0
-0 -0 -0 -0 -0 -0 -0 -0 -0 0 -0 -0 -0 -0 -0 -0 -0 -0 -0 -0 -0 -0 -0 -0 -0 -0 -0 -0 -0 -0 -0 -0 0 0 0 0 0 0 0 0 0 0 0
-0 -0 -0 -0 -0 -0 -0 -0 -0 -0 -0 -0 -0 -0 -0 -0 -0 -0 -0 -0 -0 -0 -0 -0 -0 -0 -0 0 0 0 0 -0 0 0 0 0 0 0 0 0 0 0 0
-0 -0 -0 0 -0 0 0 0 0 0 -0 -0 -0 -0 -0 -0 -0 -0 -0 -0 -0 -0 -0 -0 0 0 0 0 0 0 0 0 0 0 0 0 0 0 0 0 0 0 0
0 0 0 0 0 0 0 0 0 0 0 0 -0 -0 -0 -0 -0 -0 0 -0 -0 -0 0 0 0 0 0 0 0 0 0 0 0 0 0 0 0 0 0 0 0 0 0
0 0 0 0 0 0 0 0 0 0 0 0 0 0 0 0 -0 0 0 0 0 0 0 0 0 0 0 0 0 0 0 0 0 0 0 0 0 0 0 0 0 0 0
0 0 0 0 0 0 0 0 0 0 0 0 0 0 0 0 0 0 0 0 0 0 0 0 0 0 0 0 0 0 0 0 0 0 0 0 0 0 0 0 0 0 0
0 0 0 0 0 0 0 0 0 0 0 0 0 0 0 0 0 0 0 0 0 0 0 0 0 0 0 0 0 0 0 0 0 0 0 0 0 0 0 0 0 0 0
0 0 0 0 0 0 0 0 0 0 0 0 0 0 0 0 0 0 0 0 0 0 0 0 0 0 0 0 0 0 0 0 0 0 0 0 0 0 0 0 0 0 0
0 0 0 0 0 0 0 0 0 0 0 0 0 0 0 0 0 0 0 0 0 0 0 0 0 0 -0 -0 0 0 0 0 0 0 0 0 0 0 0 0 0 0 0
0 0 0 0 0 0 0 0 0 0 0 0 0 0 0 0 0 0 0 0 0 0 0 0 0 0 0 0 0 0 0 0 0 0 0 0 0 0 0 0 0 0 0
0 0 0 0 0 0 0 0 0 0 0 0 0 0 0 0 0 0 0 0 0 0 0 0 0 0 0 0 0 0 0 0 0 0 0 0 0 0 0 0 0 0 0
0 0 0 0 0 0 0 0 0 0 0 0 0 0 0 0 0 0 0 0 0 0 0 0 0 0 0 0 0 0 0 0 0 0 0 0 0 0 0 0 0 0 0
0 0 0 0 0 0 0 0 0 0 0 0 0 0 0 0 0 0 0 0 0 0 0 0 0 0 0 0 0 0 0 0 0 0 0 0 0 0 0 0 0 0 0
0 0 0 0 0 0 0 0 0 0 0 0 0 0 0 0 0 0 0 0 0 0 0 0 0 0 0 0 0 0 0 0 0 0 0 0 0 0 0 0 0 0 0
0 0 0 0 0 0 0 0 0 0 0 0 0 0 0 0 0 0 0 0 0 0 0 0 0 0 0 0 0 0 0 0 0 0 0 0 0 0 0 0 0 0 0
0 0 0 0 0 0 0 0 0 0 0 0 0 0 0 0 0 0 0 0 0 0 0 0 0 0 0 0 -0 0 0 0 0 0 0 0 0 0 0 0 0 0 0
0 0 0 0 0 0 0 0 0 0 0 0 0 0 0 0 0 0 0 0 0 0 0 0 0 -0 -0 0 -0 -0 0 0 0 0 0 0 0 0 0 0 0 0 0
0 0 0 0 0 0 0 0 0 0 0 0 0 0 0 0 0 0 0 0 0 0 0 0 0 0 -0 0 -0 -0 -0 -0 0 0 0 0 0 0 0 -0 0 0 0
0 0 0 0 0 0 0 0 0 0 0 0 0 0 0 0 0 0 0 0 0 0 0 0 0 -0 -0 0 -0 0 0 -0 -0 -0 0 0 0 0 0 0 -0 -0 -0
0 0 0 0 0 0 0 0 0 0 0 0 0 0 0 0 0 0 0 0 0 0 0 0 0 0 0 -0 -0 -0 -0 0 0 0 0 -0 0 -0 -0 -0 -0 -0 -0
0 0 0 0 0 0 0 0 0 0 0 0 0 0 0 0 0 0 0 0 0 0 0 0 -0 -0 -0 -0 -0 -0 -0 -0 0 0 0 0 -0 -0 -0 -0 -0 -0 -0
Wind_Speed_500mb
22 27 27 25 25 25 22 20 18 17 17 17 17 19 21 22 22 24 22 19 19 20 20 20 18 17 16 17 16 17 17 18 21 22 20 19 18 19 22 26 26 23 21
24 26 28 27 24 24 23 21 20 18 17 17 18 19 16 19 23 24 24 16 15 18 19 19 17 16 16 17 17 17 20 22 26 31 23 15 13 16 17 17 18 21 22
28 27 30 28 24 22 21 18 17 17 15 13 18 16 13 17 23 23 23 21 13 15 17 17 18 15 14 14 14 16 20 28 36 34 25 20 10 11 11 11 12 13 15
26 23 29 28 23 18 20 18 18 16 14 14 13 10 10 14 22 26 26 21 14 14 16 17 17 15 14 14 14 17 21 27 27 21 22 15 15 7 8 8 9 9 9
28 18 23 25 19 18 17 18 17 13 12 13 13 12 11 13 20 26 27 22 16 15 16 17 16 15 14 14 15 19 23 26 24 18 9 6 14 13 11 9 8 7 7
26 22 24 24 20 16 14 19 17 13 12 11 12 13 9 11 18 24 26 22 17 16 16 16 16 15 15 14 16 19 22 22 14 15 2 12 10 11 10 9 8 6 5
29 23 23 23 22 18 17 16 14 13 13 12 13 13 6 7 13 19 23 22 17 16 16 17 16 15 16 15 15 14 14 7 8 6 5 9 11 12 13 12 10 7 5
26 20 22 28 28 23 18 15 13 13 12 11 12 12 5 4 8 13 17 21 20 17 17 17 16 14 13 13 13 11 9 4 7 8 9 12 11 11 12 13 11 11 9
17 22 11 27 24 24 19 18 17 14 13 12 13 11 7 4 4 8 14 16 20 22 21 19 17 16 13 11 10 8 6 4 7 6 13 12 12 13 13 12 12 11 10
14 14 14 14 16 15 17 18 17 15 14 14 13 12 10 5 5 6 11 15 17 20 20 21 21 17 13 10 8 5 4 5 5 6 8 9 10 11 12 13 12 12 12
18 25 29 18 27 25 17 18 18 16 16 16 15 14 10 9 5 6 14 12 16 23 29 27 24 21 17 12 10 8 7 6 6 8 8 9 9 9 11 11 12 12 11
18 22 24 26 22 38 27 18 19 19 18 19 18 17 12 11 10 4 5 10 13 15 20 27 32 26 31 21 14 11 10 10 9 11 9 11 12 13 14 14 13 14 14
19 21 25 27 21 35 39 18 21 21 22 20 15 15 19 23 13 8 5 1 11 13 15 20 25 34 39 35 21 16 14 14 15 16 15 15 14 14 14 16 16 17 17
19 24 25 28 31 27 32 39 37 32 29 28 22 23 21 24 16 11 3 5 10 13 15 17 19 28 44 43 27 22 22 21 20 20 19 18 19 19 19 19 19 19 20
17 18 19 24 28 29 40 42 37 33 33 28 23 18 21 14 10 11 7 6 12 8 11 15 21 26 34 37 43 32 26 25 23 22 22 20 21 21 22 22 23 21 20
14 15 16 21 33 35 38 36 38 29 27 25 23 22 17 13 10 10 8 7 1 3 11 15 19 29 28 29 31 29 27 25 23 23 22 21 21 22 23 23 23 25 25
15 15 17 21 28 34 39 38 36 31 26 22 20 19 19 18 13 10 8 10 4 5 8 11 21 27 27 23 22 22 21 20 22 22 20 20 21 22 21 23 25 26 27
19 17 16 22 28 38 41 38 37 31 24 24 21 17 16 15 14 19 17 12 11 2 8 14 15 14 20 21 21 19 18 18 19 21 22 18 18 19 22 24 23 26 27
16 15 17 24 33 40 41 40 34 29 25 24 29 32 31 26 20 11 7 2 1 6 4 10 14 19 22 26 26 24 17 20 19 15 25 24 21 20 19 19 20 21 22
11 13 23 32 38 41 51 45 38 33 32 33 27 27 19 16 11 5 3 8 15 18 21 19 20 23 29 33 33 27 19 21 15 17 28 30 20 20 23 24 23 25 29
17 22 30 39 51 53 55 49 46 37 36 24 25 22 20 18 19 23 25 24 23 20 22 22 24 29 33 37 37 27 18 22 16 37 36 20 24 34 30 30 35 39 43
25 30 39 52 58 60 56 51 45 42 31 33 34 34 34 33 31 28 25 23 22 21 21 24 30 34 41 51 52 33 21 17 13 35 13 41 46 35 53 49 46 57 56
33 37 50 58 58 58 52 48 44 43 41 44 45 45 40 33 29 24 22 21 21 24 29 33 36 40 43 42 47 41 23 23 67 6 45 30 50 65 56 71 70 70 67
44 49 52 55 51 44 39 45 46 47 57 51 45 40 36 29 24 21 20 21 22 25 29 37 41 45 46 48 43 38 27 26 35 44 53 78 66 73 75 75 75 76 76
51 55 55 50 47 45 46 45 51 55 52 47 41 34 29 24 21 20 21 23 26 32 35 36 36 40 43 47 51 52 48 44 33 43 78 89 90 86 86 86 86 76 76
54 53 50 50 48 46 47 50 48 47 46 42 36 29 26 22 19 18 20 23 26 29 34 39 45 48 51 52 52 53 54 54 54 54 73 92 91 96 96 95 90 73 78
Wind_Direction_500mb
184 169 162 153 148 146 140 128 121 118 115 111 105 109 78 54 44 42 40 37 39 46 51 51 54 59 65 62 81 79 72 63 60 61 66 66 77 81 72 68 68 67 61
190 179 166 156 153 150 148 145 138 133 128 119 122 114 84 65 57 45 41 40 43 45 43 45 50 59 69 78 84 81 74 66 67 58 46 65 82 84 81 73 68 68 64
179 179 168 163 157 154 155 150 141 137 128 125 122 119 73 77 51 45 38 33 46 48 49 48 51 52 65 77 81 82 76 79 82 72 40 31 67 77 75 67 61 59 68
170 175 173 164 167 161 161 157 150 145 135 139 131 124 100 73 40 32 25 23 54 51 50 49 53 60 65 68 75 80 84 91 83 90 90 30 48 65 59 50 44 42 50
160 186 178 165 169 177 158 159 156 152 150 146 142 135 114 46 35 30 25 33 56 55 50 49 53 61 68 78 85 92 99 98 81 54 105 43 38 51 45 35 37 35 46
157 175 187 174 176 183 173 167 169 172 168 160 158 152 125 49 38 34 35 45 59 57 52 52 55 60 67 71 80 95 108 106 123 126 89 55 45 41 31 25 28 27 27
146 178 208 203 183 196 194 186 190 185 178 170 170 160 128 58 47 44 44 52 57 53 49 51 54 57 60 66 77 92 106 100 100 94 46 39 32 31 26 22 20 16 10
155 190 209 202 190 195 193 194 196 197 190 180 173 167 148 82 52 40 40 43 44 44 42 44 47 51 60 67 74 81 90 64 42 44 19 28 27 28 25 25 17 12 3
176 178 198 191 206 201 196 191 195 195 195 191 179 182 182 161 63 31 22 31 32 30 31 34 38 40 42 49 57 68 78 44 37 22 23 19 12 12 15 14 13 7 1
144 153 176 181 198 191 210 211 208 206 200 205 206 204 216 200 133 35 29 21 17 14 24 27 27 27 27 27 27 17 14 1 9 344 20 11 10 3 359 3 5 2 356
176 175 165 205 204 182 209 224 209 212 216 218 214 213 221 185 245 27 50 41 25 16 10 8 11 14 10 1 350 339 342 324 335 324 346 346 346 343 344 346 351 349 346
213 199 194 188 200 193 187 202 210 217 226 233 231 224 205 204 194 72 359 358 3 2 7 360 354 6 5 347 337 327 322 314 317 311 324 325 330 331 329 330 335 334 335
227 222 212 208 215 200 203 188 198 206 201 203 217 215 187 187 192 216 226 302 340 338 355 355 354 353 356 353 330 324 322 318 316 310 310 312 314 314 313 316 319 321 319
223 229 226 220 226 210 197 198 207 206 205 197 188 188 194 189 184 207 198 311 323 325 330 338 346 351 355 358 346 333 330 328 322 316 313 310 307 307 308 311 312 313 313
224 232 232 223 217 208 205 205 202 202 208 200 181 186 195 199 194 194 250 296 319 290 320 337 338 350 350 347 344 342 341 333 323 316 312 308 303 303 302 301 300 300 299
245 249 240 226 204 205 202 202 212 211 211 214 208 210 231 214 214 243 282 272 265 21 334 334 334 335 329 332 332 332 334 338 333 319 304 303 303 306 306 301 298 297 297
254 247 227 213 203 194 206 203 204 204 214 214 213 197 201 223 234 246 221 191 215 17 323 344 328 324 325 345 355 359 357 359 353 349 329 309 306 306 305 301 301 299 295
263 258 232 207 191 189 201 201 200 195 202 198 196 199 216 238 225 162 138 115 113 311 325 316 349 1 16 15 17 19 25 24 15 7 12 6 347 331 318 313 305 297 298
242 230 208 179 180 186 188 188 177 174 170 160 151 141 137 134 135 134 125 118 5 324 48 56 39 25 15 19 21 14 23 33 21 57 33 21 14 10 7 356 350 333 320
228 195 170 173 179 187 173 168 165 164 155 152 146 146 148 149 154 168 135 98 96 80 64 47 29 16 9 10 16 27 32 13 10 29 360 358 9 2 351 342 344 346 341
181 174 173 174 171 171 166 160 159 158 154 165 160 146 159 146 131 123 114 103 89 77 61 45 28 16 4 4 356 23 24 347 360 351 345 350 333 331 335 330 326 328 328
181 177 174 171 164 158 157 164 163 154 163 156 144 137 130 123 113 104 92 78 64 50 37 26 18 17 15 9 13 11 357 339 309 322 346 325 320 318 318 317 314 317 319
179 176 171 165 161 160 160 159 157 152 152 143 135 127 117 113 108 99 86 71 54 39 31 24 19 14 16 15 15 22 1 337 335 262 310 312 315 317 319 314 316 316 317
169 167 167 161 160 160 160 157 160 158 147 135 130 123 119 109 99 86 69 53 40 33 24 21 18 15 10 9 6 15 10 348 330 320 308 317 317 314 315 315 317 319 320
169 167 168 164 159 158 166 164 157 148 140 134 128 125 118 107 92 75 57 44 34 28 23 17 12 11 8 6 2 355 349 345 344 309 312 318 316 320 319 319 319 321 320
177 175 173 171 170 173 165 156 155 150 144 139 132 127 113 98 80 62 45 31 21 15 12 11 8 4 0 357 353 350 346 343 336 329 318 317 316 315 314 316 316 319 314
Wind_Speed_850mb
22 27 27 25 25 25 22 20 18 17 17 17 17 19 21 22 22 24 22 19 19 20 20 20 18 17 16 17 16 17 17 18 21 22 20 19 18 19 22 26 26 23 21
24 26 28 27 24 24 23 21 20 18 17 17 18 19 16 19 23 24 24 16 15 18 19 19 17 16 16 17 17 17 20 22 26 31 23 15 13 16 17 17 18 21 22
28 27 30 28 24 22 21 18 17 17 15 13 18 16 13 17 23 23 23 21 13 15 17 17 18 15 14 14 14 16 20 28 36 34 25 20 10 11 11 11 12 13 15
26 23 29 28 23 18 20 18 18 16 14 14 13 10 10 14 22 26 26 21 14 14 16 17 17 15 14 14 14 17 21 27 27 21 22 15 15 7 8 8 9 9 9
28 18 23 25 19 18 17 18 17 13 12 13 13 12 11 13 20 26 27 22 16 15 16 17 16 15 14 14 15 19 23 26 24 18 9 6 14 13 11 9 8 7 7
26 22 24 24 20 16 14 19 17 13 12 11 12 13 9 11 18 24 26 22 17 16 16 16 16 15 15 14 16 19 22 22 14 15 2 12 10 11 10 9 8 6 5
29 23 23 23 22 18 17 16 14 13 13 12 13 13 6 7 13 19 23 22 17 16 16 17 16 15 16 15 15 14 14 7 8 6 5 9 11 12 13 12 10 7 5
26 20 22 28 28 23 18 15 13 13 12 11 12 12 5 4 8 13 17 21 20 17 17 17 16 14 13 13 13 11 9 4 7 8 9 12 11 11 12 13 11 11 9
17 22 11 27 24 24 19 18 17 14 13 12 13 11 7 4 4 8 14 16 20 22 21 19 17 16 13 11 10 8 6 4 7 6 13 12 12 13 13 12 12 11 10
14 14 14 14 16 15 17 18 17 15 14 14 13 12 10 5 5 6 11 15 17 20 20 21 21 17 13 10 8 5 4 5 5 6 8 9 10 11 12 13 12 12 12
18 25 29 18 27 25 17 18 18 16 16 16 15 14 10 9 5 6 14 12 16 23 29 27 24 21 17 12 10 8 7 6 6 8 8 9 9 9 11 11 12 12 11
18 22 24 26 22 38 27 18 19 19 18 19 18 17 12 11 10 4 5 10 13 15 20 27 32 26 31 21 14 11 10 10 9 11 9 11 12 13 14 14 13 14 14
19 21 25 27 21 35 39 18 21 21 22 20 15 15 19 23 13 8 5 1 11 13 15 20 25 34 39 35 21 16 14 14 15 16 15 15 14 14 14 16 16 17 17
19 24 25 28 31 27 32 39 37 32 29 28 22 23 21 24 16 11 3 5 10 13 15 17 19 28 44 43 27 22 22 21 20 20 19 18 19 19 19 19 19 19 20
17 18 19 24 28 29 40 42 37 33 33 28 23 18 21 14 10 11 7 6 12 8 11 15 21 26 34 37 43 32 26 25 23 22 22 20 21 21 22 22 23 21 20
14 15 16 21 33 35 38 36 38 29 27 25 23 22 17 13 10 10 8 7 1 3 11 15 19 29 28 29 31 29 27 25 23 23 22 21 21 22 23 23 23 25 25
15 15 17 21 28 34 39 38 36 31 26 22 20 19 19 18 13 10 8 10 4 5 8 11 21 27 27 23 22 22 21 20 22 22 20 20 21 22 21 23 25 26 27
19 17 16 22 28 38 41 38 37 31 24 24 21 17 16 15 14 19 17 12 11 2 8 14 15 14 20 21 21 19 18 18 19 21 22 18 18 19 22 24 23 26 27
16 15 17 24 33 40 41 40 34 29 25 24 29 32 31 26 20 11 7 2 1 6 4 10 14 19 22 26 26 24 17 20 19 15 25 24 21 20 19 19 20 21 22
11 13 23 32 38 41 51 45 38 33 32 33 27 27 19 16 11 5 3 8 15 18 21 19 20 23 29 33 33 27 19 21 15 17 28 30 20 20 23 24 23 25 29
17 22 30 39 51 53 55 49 46 37 36 24 25 22 20 18 19 23 25 24 23 20 22 22 24 29 33 37 37 27 18 22 16 37 36 20 24 34 30 30 35 39 43
25 30 39 52 58 60 56 51 45 42 31 33 34 34 34 33 31 28 25 23 22 21 21 24 30 34 41 51 52 33 21 17 13 35 13 41 46 35 53 49 46 57 56
33 37 50 58 58 58 52 48 44 43 41 44 45 45 40 33 29 24 22 21 21 24 29 33 36 40 43 42 47 41 23 23 67 6 45 30 50 65 56 71 70 70 67
44 49 52 55 51 44 39 45 46 47 57 51 45 40 36 29 24 21 20 21 22 25 29 37 41 45 46 48 43 38 27 26 35 44 53 78 66 73 75 75 75 76 76
51 55 55 50 47 45 46 45 51 55 52 47 41 34 29 24 21 20 21 23 26 32 35 36 36 40 43 47 51 52 48 44 33 43 78 89 90 86 86 86 86 76 76
54 53 50 50 48 46 47 50 48 47 46 42 36 29 26 22 19 18 20 23 26 29 34 39 45 48 51 52 52 53 54 54 54 54 73 92 91 96 96 95 90 73 78
Wind_Direction_850mb
184 169 162 153 148 146 140 128 121 118 115 111 105 109 78 54 44 42 40 37 39 46 51 51 54 59 65 62 81 79 72 63 60 61 66 66 77 81 72 68 68 67 61
190 179 166 156 153 150 148 145 138 133 128 119 122 114 84 65 57 45 41 40 43 45 43 45 50 59 69 78 84 81 74 66 67 58 46 65 82 84 81 73 68 68 64
179 179 168 163 157 154 155 150 141 137 128 125 122 119 73 77 51 45 38 33 46 48 49 48 51 52 65 77 81 82 76 79 82 72 40 31 67 77 75 67 61 59 68
170 175 173 164 167 161 161 157 150 145 135 139 131 124 100 73 40 32 25 23 54 51 50 49 53 60 65 68 75 80 84 91 83 90 90 30 48 65 59 50 44 42 50
160 186 178 165 169 177 158 159 156 152 150 146 142 135 114 46 35 30 25 33 56 55 50 49 53 61 68 78 85 92 99 98 81 54 105 43 38 51 45 35 37 35 46
157 175 187 174 176 183 173 167 169 172 168 160 158 152 125 49 38 34 35 45 59 57 52 52 55 60 67 71 80 95 108 106 123 126 89 55 45 41 31 25 28 27 27
146 178 208 203 183 196 194 186 190 185 178 170 170 160 128 58 47 44 44 52 57 53 49 51 54 57 60 66 77 92 106 100 100 94 46 39 32 31 26 22 20 16 10
155 190 209 202 190 195 193 194 196 197 190 180 173 167 148 82 52 40 40 43 44 44 42 44 47 51 60 67 74 81 90 64 42 44 19 28 27 28 25 25 17 12 3
176 178 198 191 206 201 196 191 195 195 195 191 179 182 182 161 63 31 22 31 32 30 31 34 38 40 42 49 57 68 78 44 37 22 23 19 12 12 15 14 13 7 1
144 153 176 181 198 191 210 211 208 206 200 205 206 204 216 200 133 35 29 21 17 14 24 27 27 27 27 27 27 17 14 1 9 344 20 11 10 3 359 3 5 2 356
176 175 165 205 204 182 209 224 209 212 216 218 214 213 221 185 245 27 50 41 25 16 10 8 11 14 10 1 350 339 342 324 335 324 346 346 346 343 344 346 351 349 346
213 199 194 188 200 193 187 202 210 217 226 233 231 224 205 204 194 72 359 358 3 2 7 360 354 6 5 347 337 327 322 314 317 311 324 325 330 331 329 330 335 334 335
227 222 212 208 215 200 203 188 198 206 201 203 217 215 187 187 192 216 226 302 340 338 355 355 354 353 356 353 330 324 322 318 316 310 310 312 314 314 313 316 319 321 319
223 229 226 220 226 210 197 198 207 206 205 197 188 188 194 189 184 207 198 311 323 325 330 338 346 351 355 358 346 333 330 328 322 316 313 310 307 307 308 311 312 313 313
224 232 232 223 217 208 205 205 202 202 208 200 181 186 195 199 194 194 250 296 319 290 320 337 338 350 350 347 344 342 341 333 323 316 312 308 303 303 302 301 300 300 299
245 249 240 226 204 205 202 202 212 211 211 214 208 210 231 214 214 243 282 272 265 21 334 334 334 335 329 332 332 332 334 338 333 319 304 303 303 306 306 301 298 297 297
254 247 227 213 203 194 206 203 204 204 214 214 213 197 201 223 234 246 221 191 215 17 323 344 328 324 325 345 355 359 357 359 353 349 329 309 306 306 305 301 301 299 295
263 258 232 207 191 189 201 201 200 195 202 198 196 199 216 238 225 162 138 115 113 311 325 316 349 1 16 15 17 19 25 24 15 7 12 6 347 331 318 313 305 297 298
242 230 208 179 180 186 188 188 177 174 170 160 151 141 137 134 135 134 125 118 5 324 48 56 39 25 15 19 21 14 23 33 21 57 33 21 14 10 7 356 350 333 320
228 195 170 173 179 187 173 168 165 164 155 152 146 146 148 149 154 168 135 98 96 80 64 47 29 16 9 10 16 27 32 13 10 29 360 358 9 2 351 342 344 346 341
181 174 173 174 171 171 166 160 159 158 154 165 160 146 159 146 131 123 114 103 89 77 61 45 28 16 4 4 356 23 24 347 360 351 345 350 333 331 335 330 326 328 328
181 177 174 171 164 158 157 164 163 154 163 156 144 137 130 123 113 104 92 78 64 50 37 26 18 17 15 9 13 11 357 339 309 322 346 325 320 318 318 317 314 317 319
179 176 171 165 161 160 160 159 157 152 152 143 135 127 117 113 108 99 86 71 54 39 31 24 19 14 16 15 15 22 1 337 335 262 310 312 315 317 319 314 316 316 317
169 167 167 161 160 160 160 157 160 158 147 135 130 123 119 109 99 86 69 53 40 33 24 21 18 15 10 9 6 15 10 348 330 320 308 317 317 314 315 315 317 319 320
169 167 168 164 159 158 166 164 157 148 140 134 128 125 118 107 92 75 57 44 34 28 23 17 12 11 8 6 2 355 349 345 344 309 312 318 316 320 319 319 319 321 320
177 175 173 171 170 173 165 156 155 150 144 139 132 127 113 98 80 62 45 31 21 15 12 11 8 4 0 357 353 350 346 343 336 329 318 317 316 315 314 316 316 319 314